Flag for Poland Weather past 2 weeks in Poznan, Poland

Now
41 °F

Light rain. Passing clouds.


Feels Like: 36 °F
Forecast: 40 / 50 °F
Wind: 8 mph from West

Location: Poznan Airport

Current Time: Mar 6, 2015 at 11:24:59 PM

Latest Report: Mar 6, 2015 at 10:30 PM


Visibility: N/A

Pressure: 30.51 "Hg

Humidity: 81%

Dew point: 36 °F

Location of PoznanLocation

Historic Weather in Poznan — Graph

°F

Poznan temperature yesterday

Maximum temperature yesterday: 43 °F (at 2:00 PM)
Minimum temperature yesterday: 25 °F (at 11:30 PM)
Average temperature yesterday: 36 °F

Past Weeks' High & Low Weather Summary

 TemperatureHumidityPressure
High50 °F (Feb 21, 2:30 PM)93% (Feb 20, 4:00 AM)30.54 "Hg (Feb 20, 4:00 AM)
Low21 °F (Mar 6, 3:30 AM)13% (Mar 2, 4:30 PM)29.42 "Hg (Mar 2, 8:30 AM)
Average38 °F77%29.93 "Hg
* Reported Feb 19 10:00 PM — Mar 6 10:00 PM, Poznan, Weather by CustomWeather, © 2015

Note: Actual official high and low records may vary slightly from our data, if they occured in-between our weather recording intervals... More about our weather records

Advertising

Poznan weather history for previous 24 hours

 ConditionsComfort  
Time TempWeatherWind HumidityBarometerVisibility
10:00 PM
Fri, Mar 6
41 °FLight rain. Passing clouds.8 mph81%30.51 "HgN/A
9:30 PM41 °FClear.8 mph81%30.48 "Hg10 mi
9:00 PM41 °FClear.7 mph81%30.51 "Hg10 mi
8:30 PM39 °FPassing clouds.5 mph93%30.48 "HgN/A
8:00 PM41 °FOvercast.5 mph87%30.48 "Hg5 mi
7:30 PM41 °FPassing clouds.5 mph87%30.48 "Hg5 mi
7:00 PM41 °FLight rain. Clear.6 mph87%30.48 "Hg5 mi
6:30 PM41 °FClear.6 mph81%30.48 "Hg5 mi
6:00 PM41 °FLight rain. Passing clouds.6 mph81%30.48 "Hg5 mi
5:30 PM41 °FLight rain. Partly sunny.9 mph81%30.48 "HgN/A
5:00 PM41 °FOvercast.9 mph81%30.48 "HgN/A
4:30 PM41 °FOvercast.9 mph81%30.48 "HgN/A
4:00 PM41 °FBroken clouds.10 mph81%30.48 "HgN/A
3:30 PM43 °FLight rain. Clear.8 mph81%30.48 "HgN/A
3:00 PM41 °FLight rain. Clear.7 mph87%30.48 "HgN/A
2:30 PM41 °FLight rain. Overcast.7 mph81%30.48 "HgN/A
2:00 PM41 °FPartly sunny.9 mph76%30.48 "HgN/A
1:30 PM43 °FPartly sunny.14 mph71%30.48 "HgN/A
1:00 PM43 °FPartly sunny.12 mph71%30.51 "HgN/A
12:30 PM41 °FPartly sunny.12 mph76%30.51 "HgN/A
12:00 PM41 °FPartly sunny.12 mph76%30.51 "HgN/A
11:30 AM39 °FSunny.12 mph75%30.54 "Hg10 mi
11:00 AM36 °FSunny.9 mph87%30.54 "Hg10 mi
10:30 AM36 °FClear.7 mph87%30.54 "Hg5 mi
10:00 AM36 °FClear.8 mph81%30.54 "Hg5 mi
9:30 AM36 °FClear.8 mph87%30.54 "Hg5 mi
9:00 AM34 °FFog.6 mph87%30.54 "Hg2 mi
8:30 AM32 °FIce fog.5 mph87%30.54 "Hg1 mi
8:00 AM28 °FIce fog.2 mph93%30.54 "Hg1 mi
7:30 AM25 °FIce fog.2 mph86%30.51 "Hg1 mi
7:00 AM23 °FIce fog.1 mph93%30.54 "Hg1 mi
6:30 AM21 °FIce fog.1 mph93%30.54 "Hg1 mi
6:00 AM23 °FIce fog.1 mph86%30.54 "Hg1 mi
5:30 AM21 °FClear.3 mph86%30.51 "Hg4 mi
5:00 AM23 °FClear.1 mph86%30.51 "Hg4 mi
4:30 AM23 °FFog.2 mph86%30.51 "Hg4 mi
4:00 AM23 °FIce fog.1 mph86%30.51 "Hg2 mi
3:30 AM21 °FIce fog.1 mph93%30.51 "Hg1 mi
3:00 AM23 °FIce fog.No wind93%30.51 "Hg2 mi
2:30 AM25 °FIce fog.1 mph86%30.51 "Hg2 mi
2:00 AM25 °FIce fog.1 mph86%30.51 "Hg3 mi
1:30 AM23 °FIce fog.2 mph93%30.51 "Hg3 mi
1:00 AM25 °FIce fog.2 mph86%30.51 "Hg3 mi
12:30 AM25 °FClear.2 mph86%30.51 "Hg4 mi
12:00 AM25 °FClear.1 mph93%30.51 "Hg5 mi
11:30 PM
Thu, Mar 5
25 °FClear.2 mph86%30.51 "Hg10 mi
11:00 PM27 °FClear.2 mph86%30.51 "Hg10 mi
Weather by CustomWeather, © 2015

See weather overviewHow to use our weather pages